Torna al catalogo

STARLINK-30072

AttivoComunicazioniVLEO
NORAD 57501·PAYLOAD·🇺🇸 United States

Lanciato Aug 7, 2023 da Cape Canaveral Space Force Station

Loading…

Prossimi Passaggi (prossime 24 ore)

TLE

AggiornatoSource: CelesTrak SupGP

Epoca: Sep 14, 2026, 14:43 UTC

1 57501C 23113G   26257.61368056 -.00056610  00000+0 -20506-2 0  2576
2 57501  43.0025  29.4005 0001342 270.8143 150.1154 15.27603892    10

Traccia STARLINK-30072 in tempo reale con AllMySat

Download on the App Store